logo
Search for airport 
image banner adimage banner adimage banner ad
image banner ad

LOAF - Baden Kh

Located in District Baden, Austria

ICAO - , IATA -

Data provided by Airmate  

General information

Coordinates: N48°0'2" E16°15'21"
Elevation is 792 feet MSL.
 
View others Airports in Lower Austria

Operational data

Special qualification required
Current time UTC:
Current local time:
Weather at : LOAV - Voslau ( 4 km )
METAR: LOAV 171700Z 30010KT 9999 SCT030 09/02
TAF: TAF LOAV 171115Z 1712/1721 32012KT 9999 SCT030 TEMPO 1712/1717 30015G25KT SHRA TEMPO 1712/1715 FEW030CB SCT040
View NOTAMs / SUP AIP / TFR affecting this airport [VIEW]
Communications frequencies: [VIEW]

Runways:

Airport contact information

Address: District Baden Austria

Satellite view of LOAF